User: anonymous   Login
Location: Lincolnton
(35.4660°N, 81.2500°W)
Time: 08:49:49
(UTC-04:00)
Language:

Hubble Space Telescope - Orbit

View from above orbital plane
View from above orbital plane
View from above satellite
View from above satellite

Ground track
Ground track

The orbit data is extracted from the following two-line orbital elements,

1 20580U 90037B   15244.57489074  .00001240  00000-0  67938-4 0  9998
2 20580  28.4711  10.3194 0002843 341.4851 125.7907 15.07656621191349
Epoch (UTC): 01 September 2015 13:47:50
Eccentricity: 0.0002843
inclination: 28.4711°
perigee height: 541 km
apogee height: 545 km
right ascension of ascending node: 10.3194°
argument of perigee: 341.4851°
revolutions per day: 15.07656621
mean anomaly at epoch: 125.7907°
orbit number at epoch: 19134

The dashed part of the orbit path shows where the satellite is in the earth's shadow,  

DLR